Coleman, TX

1:24 PM CDT on August 28, 2016 (GMT -0500)
Coleman Municipal

Weather History for KCOM - February, 2013

Change the Weather History Date:

Sunday, February 24, 2013

  Actual Average (KABI) Record (KABI)
Temperature  
Mean Temperature 56 °F 51 °F  
Max Temperature 75 °F 63 °F 91 °F (1918)
Min Temperature 38 °F 39 °F 14 °F (1889)
Degree Days  
Heating Degree Days 8 15  
Month to date heating degree days 409  
Since 1 July heating degree days 2078  
Cooling Degree Days 0 0  
Month to date cooling degree days 0  
Year to date cooling degree days 1  
Growing Degree Days 6 (Base 50)    
Moisture  
Dew Point 40 °F    
Average Humidity 56    
Maximum Humidity 75    
Minimum Humidity 32    
Precipitation  
Precipitation 0.00 in 0.04 in 1.77 in (1992)
Month to date precipitation 1.14  
Year to date precipitation 2.16  
Sea Level Pressure  
Sea Level Pressure 29.72 in    
Wind  
Wind Speed 11 mph (SSE)    
Max Wind Speed 23 mph    
Max Gust Speed 31 mph    
Visibility 10 miles    
Events      
T = Trace of Precipitation, MM = Missing Value Source: NWS Daily Summary

Daily Weather History Graph

Daily Weather History Graph

Search for Another Location

Airport or City:

Trip Planner

Search our weather history database for the weather conditions in past years. The results will help you decide how hot, cold, wet, or windy it might be!

Date:

Astronomy

Feb. 24, 2013 Rise Set
Actual Time 7:10 AM CST 6:31 PM CST
Civil Twilight 6:45 AM CST 6:56 PM CST
Nautical Twilight 6:17 AM CST 7:24 PM CST
Astronomical Twilight 5:48 AM CST 7:53 PM CST
Moon 5:44 PM CST (2/24) 6:06 AM CST (2/24)
Length of Visible Light 12h 11m
Length of Day
11h 21m
Waxing Gibbous, 99% of the Moon is Illuminated
Feb 24
Waxing Gibbous
Feb 25
Full
Mar 4
Last Quarter
Mar 11
New
Mar 19
First Quarter

Hourly Weather History & Observations

Time (CST) Temp. Windchill Dew Point Humidity Pressure Visibility Wind Dir Wind Speed Gust Speed Precip Events Conditions
12:15 AM 45.5 °F 40.8 °F 28.8 °F 52% 29.87 in 10.0 mi SSE 9.2 mph - N/A   Clear
12:35 AM 43.9 °F 39.9 °F 29.1 °F 56% 29.86 in 10.0 mi SSE 6.9 mph - N/A   Clear
12:55 AM 42.6 °F 36.8 °F 29.7 °F 60% 29.86 in 10.0 mi SSE 10.4 mph - N/A   Clear
1:15 AM 43.5 °F 38.9 °F 30.2 °F 59% 29.85 in 10.0 mi SSE 8.1 mph - N/A   Clear
1:35 AM 43.2 °F 37.9 °F 30.9 °F 62% 29.84 in 10.0 mi SSE 9.2 mph - N/A   Clear
1:55 AM 43.0 °F 39.5 °F 31.3 °F 63% 29.85 in 10.0 mi SSE 5.8 mph - N/A   Clear
2:15 AM 42.4 °F 38.1 °F 31.3 °F 65% 29.86 in 10.0 mi South 6.9 mph - N/A   Clear
2:35 AM 41.7 °F 38.0 °F 31.3 °F 66% 29.86 in 10.0 mi SSE 5.8 mph - N/A   Clear
2:55 AM 39.9 °F 35.8 °F 31.1 °F 71% 29.85 in 10.0 mi SSE 5.8 mph - N/A   Clear
3:15 AM 38.8 °F 35.4 °F 31.1 °F 74% 29.84 in 10.0 mi SSE 4.6 mph - N/A   Clear
3:35 AM 38.7 °F 35.2 °F 31.1 °F 74% 29.84 in 10.0 mi SSE 4.6 mph - N/A   Clear
3:55 AM 38.5 °F 35.0 °F 31.3 °F 75% 29.83 in 10.0 mi SSE 4.6 mph - N/A   Clear
4:15 AM 39.6 °F 36.3 °F 31.8 °F 74% 29.83 in 10.0 mi SSE 4.6 mph - N/A   Clear
4:35 AM 39.7 °F 34.3 °F 32.0 °F 74% 29.84 in 10.0 mi SSE 8.1 mph - N/A   Clear
4:55 AM 41.0 °F 35.2 °F 32.4 °F 71% 29.83 in 10.0 mi South 9.2 mph - N/A   Clear
5:15 AM 42.3 °F 36.3 °F 32.5 °F 68% 29.83 in 10.0 mi SSE 10.4 mph - N/A   Clear
5:35 AM 42.1 °F 37.1 °F 32.5 °F 69% 29.83 in 10.0 mi South 8.1 mph - N/A   Clear
6:15 AM 42.4 °F 37.0 °F 33.1 °F 69% 29.82 in 10.0 mi South 9.2 mph - N/A   Clear
6:35 AM 41.9 °F 36.9 °F 33.3 °F 71% 29.82 in 10.0 mi SSE 8.1 mph - N/A   Clear
6:55 AM 41.2 °F 35.5 °F 33.1 °F 73% 29.82 in 10.0 mi South 9.2 mph - N/A   Clear
7:15 AM 41.4 °F 35.7 °F 33.3 °F 73% 29.83 in 10.0 mi SSE 9.2 mph - N/A   Clear
7:35 AM 42.1 °F 37.1 °F 33.6 °F 72% 29.83 in 10.0 mi SSE 8.1 mph - N/A   Clear
7:55 AM 44.1 °F 38.6 °F 34.9 °F 70% 29.83 in 10.0 mi SSE 10.4 mph - N/A   Clear
8:15 AM 46.0 °F 42.5 °F 36.0 °F 68% 29.84 in 10.0 mi SSE 6.9 mph - N/A   Clear
8:35 AM 47.8 °F - 36.9 °F 66% 29.84 in 10.0 mi SSE 12.7 mph - N/A   Clear
8:55 AM 49.5 °F - 38.1 °F 65% 29.84 in 10.0 mi SSE 15.0 mph - N/A   Clear
9:15 AM 50.9 °F - 39.0 °F 64% 29.84 in 10.0 mi SSE 13.8 mph - N/A   Clear
9:35 AM 52.2 °F - 39.6 °F 62% 29.83 in 10.0 mi South 13.8 mph 17.3 mph N/A   Clear
9:55 AM 52.9 °F - 39.6 °F 61% 29.82 in 10.0 mi SSE 12.7 mph 16.1 mph N/A   Scattered Clouds
10:15 AM 54.9 °F - 39.9 °F 57% 29.81 in 10.0 mi SSE 15.0 mph - N/A   Scattered Clouds
10:35 AM 57.2 °F - 41.2 °F 55% 29.81 in 10.0 mi SSE 12.7 mph - N/A   Clear
10:55 AM 59.2 °F - 41.5 °F 52% 29.80 in 10.0 mi South 15.0 mph 21.9 mph N/A   Clear
11:15 AM 61.5 °F - 41.9 °F 49% 29.80 in 10.0 mi South 17.3 mph 26.5 mph N/A   Clear
11:35 AM 63.0 °F - 41.5 °F 45% 29.79 in 10.0 mi South 17.3 mph 25.3 mph N/A   Clear
11:55 AM 64.6 °F - 41.5 °F 43% 29.78 in 10.0 mi South 16.1 mph 21.9 mph N/A   Clear
12:15 PM 66.2 °F - 42.1 °F 41% 29.76 in 10.0 mi South 17.3 mph 23.0 mph N/A   Clear
12:35 PM 67.5 °F - 41.9 °F 39% 29.75 in 10.0 mi South 11.5 mph 24.2 mph N/A   Clear
12:55 PM 68.4 °F - 42.3 °F 39% 29.73 in 10.0 mi SSE 12.7 mph 21.9 mph N/A   Clear
1:15 PM 69.3 °F - 41.9 °F 37% 29.71 in 10.0 mi South 15.0 mph 27.6 mph N/A   Clear
1:35 PM 71.1 °F - 41.4 °F 34% 29.70 in 10.0 mi South 19.6 mph 24.2 mph N/A   Clear
1:55 PM 71.8 °F - 41.4 °F 33% 29.68 in 10.0 mi SSW 17.3 mph 23.0 mph N/A   Clear
2:15 PM 72.9 °F - 41.5 °F 32% 29.67 in 10.0 mi SSE 13.8 mph 24.2 mph N/A   Clear
2:55 PM 73.8 °F - 41.7 °F 32% 29.64 in 10.0 mi SSE 18.4 mph 26.5 mph N/A   Clear
3:15 PM 74.3 °F - 42.3 °F 32% 29.63 in 10.0 mi SSE 13.8 mph 18.4 mph N/A   Clear
3:35 PM 75.0 °F - 43.0 °F 32% 29.62 in 10.0 mi SSE 17.3 mph 27.6 mph N/A   Clear
3:55 PM 74.8 °F - 43.0 °F 32% 29.60 in 10.0 mi SSE 12.7 mph 24.2 mph N/A   Scattered Clouds
4:15 PM 74.8 °F - 43.0 °F 32% 29.59 in 10.0 mi SE 20.7 mph 26.5 mph N/A   Scattered Clouds
4:35 PM 74.7 °F - 42.6 °F 32% 29.58 in 10.0 mi SSE 17.3 mph 23.0 mph N/A   Clear
4:55 PM 74.5 °F - 43.0 °F 32% 29.58 in 10.0 mi SSE 18.4 mph 25.3 mph N/A   Scattered Clouds
5:15 PM 74.5 °F - 43.2 °F 33% 29.58 in 10.0 mi SSE 17.3 mph 23.0 mph N/A   Mostly Cloudy
5:35 PM 73.6 °F - 43.5 °F 34% 29.58 in 10.0 mi SSE 23.0 mph 27.6 mph N/A   Mostly Cloudy
5:55 PM 71.8 °F - 44.2 °F 37% 29.59 in 10.0 mi SSE 15.0 mph 24.2 mph N/A   Scattered Clouds
6:15 PM 70.0 °F - 44.8 °F 40% 29.59 in 10.0 mi SE 17.3 mph 26.5 mph N/A   Clear
6:35 PM 68.5 °F - 45.5 °F 44% 29.60 in 10.0 mi SSE 21.9 mph 27.6 mph N/A   Clear
6:55 PM 67.3 °F - 45.7 °F 46% 29.60 in 10.0 mi SSE 17.3 mph 21.9 mph N/A   Clear
7:15 PM 66.4 °F - 45.9 °F 48% 29.60 in 10.0 mi SSE 20.7 mph 31.1 mph N/A   Clear
7:35 PM 65.8 °F - 46.2 °F 49% 29.59 in 10.0 mi SSE 21.9 mph 27.6 mph N/A   Clear
7:55 PM 64.9 °F - 46.6 °F 51% 29.59 in 10.0 mi SE 19.6 mph 24.2 mph N/A   Clear
8:15 PM 63.1 °F - 45.9 °F 53% 29.58 in 10.0 mi SE 18.4 mph 23.0 mph N/A   Clear
8:35 PM 62.1 °F - 46.4 °F 56% 29.58 in 10.0 mi SSE 20.7 mph 24.2 mph N/A   Clear
8:55 PM 61.7 °F - 47.5 °F 60% 29.58 in 10.0 mi SSE 20.7 mph 27.6 mph N/A   Clear
9:15 PM 61.2 °F - 48.4 °F 63% 29.58 in 10.0 mi SSE 17.3 mph 24.2 mph N/A   Clear
9:35 PM 60.4 °F - 48.7 °F 65% 29.57 in 10.0 mi SSE 16.1 mph 24.2 mph N/A   Clear
9:55 PM 60.1 °F - 49.8 °F 69% 29.56 in 10.0 mi SSE 17.3 mph 24.2 mph N/A   Clear
10:15 PM 60.3 °F - 50.9 °F 71% 29.56 in 10.0 mi SSE 18.4 mph 25.3 mph N/A   Scattered Clouds
10:35 PM 60.3 °F - 51.1 °F 72% 29.56 in 10.0 mi SSE 12.7 mph 19.6 mph N/A   Mostly Cloudy
10:55 PM 60.4 °F - 51.3 °F 72% 29.55 in 10.0 mi SSE 15.0 mph 19.6 mph N/A   Overcast
11:15 PM 60.8 °F - 51.8 °F 72% 29.55 in 10.0 mi South 12.7 mph 18.4 mph N/A   Overcast
11:35 PM 61.0 °F - 52.2 °F 73% 29.56 in 10.0 mi South 13.8 mph 21.9 mph N/A   Overcast
11:55 PM 61.2 °F - 52.5 °F 73% 29.60 in 10.0 mi SW 16.1 mph 20.7 mph N/A   Overcast